Radio RS-5

operational
NORAD ID: 12999 Int'l Des: 1981-120 Owner: NPOPM/MAIO Country: SU
LEOCIRCULARPOLAR

Über Radio RS-5

Beschreibung wird geladen...

Live-Position

3D-Globus wird geladen...

Nächste Überflüge

Höhenverlauf

Altitude vs Time

uPlot chart will show altitude changes over time

Zweizeiliger Elementsatz

1 12999U 81120C 26071.18962007 -.00000129 00000-0 -16070-2 0 9991
2 12999 82.9605 138.1933 0015364 150.8682 264.2556 12.05304078945894
Epoch: 12. März 2026 • Age: 12 hours

Aktueller Status

Höhe 1668.8 km
Geschwindigkeit 7.04 km/s
Subsatellitenpunkt 8.40°N, 144.97°E
Startdatum 17. Dez. 1981
Alter 44.2 years
Typ other

Technische Details

Klassifizierung Payload
Masse 70.00 kg
Trockenmasse 70.00 kg
Gesamtmasse 70.00 kg
Länge 0.80 m
Durchmesser 0.80 m
Spannweite 0.80 m
Form Poly
Hersteller NPOPM/MAIO
Bus-Typ Strela-1M
Phasenstatus In Orbit
Besitzer/Staat NPOPM/MAIO/SU

Große Konstellationen

Loading constellations...